Temperature
3 4 4 4 3 3 3 3 3 4 4 4 4 3 4 3 3 2 2 2 2 2 2 3 3 3 4 4 5 5 5 5 5 6 6 6 6 6 6 6 6 6 6 6
2 3 4 3 3 3 3 3 3 4 4 4 4 4 3 3 2 2 1 1 1 1 2 2 2 3 3 4 4 4 5 5 5 5 5 5 5 5 5 5 5 5 5 5
2 3 3 3 3 3 3 3 3 3 3 3 2 2 2 2 1 1 1 1 1 1 1 1 2 2 2 3 3 4 4 4 4 4 4 4 5 5 5 5 4 4 4 4
2 2 2 3 3 3 2 2 2 2 2 2 2 2 2 1 1 0 0 0 0 0 0 1 1 2 2 2 3 3 3 3 3 4 4 4 4 4 4 4 4 3 3 3
1 2 3 3 2 2 1 1 2 2 2 2 2 2 1 1 0 -0 -0 -0 -0 -0 -0 0 1 1 2 2 2 2 2 3 3 3 3 3 3 3 3 3 3 3 3 3
1 1 2 3 2 2 1 1 1 1 1 1 1 -0 0 1 0 -0 -1 -1 -0 -0 -0 -0 0 1 1 1 2 2 2 2 2 2 2 2 2 2 2 2 2 2 2 2
0 1 2 2 1 1 1 1 1 1 1 0 -0 -0 0 -0 -1 -1 -1 -1 -1 -1 -1 -0 -0 0 0 1 1 1 1 1 1 2 2 2 2 1 1 1 1 1 1 1
-0 0 1 1 0 0 0 1 1 0 0 -0 -1 -1 -1 -1 -1 -1 -1 -1 -1 -1 -1 -1 -1 -0 -0 0 0 0 1 1 1 1 1 1 1 1 1 1 1 0 0 0
0 1 2 1 1 1 1 0 0 -0 -1 -1 -1 -2 -2 -2 -2 -2 -2 -2 -2 -2 -2 -2 -1 -1 -1 -1 -0 -0 -0 -0 0 0 -0 -0 0 0 -0 -0 -0 -0 -1 -1
-1 0 1 1 1 1 0 -0 -1 -1 -1 -2 -2 -2 -2 -2 -2 -2 -2 -2 -2 -2 -2 -2 -2 -2 -2 -2 -1 -1 -1 -1 -1 -1 -1 -1 -1 -1 -1 -1 -1 -1 -1 -1
-2 -1 1 1 1 0 -0 -1 -1 -1 -2 -2 -2 -2 -3 -3 -3 -3 -3 -3 -3 -3 -3 -3 -3 -2 -2 -2 -2 -2 -2 -2 -2 -2 -2 -2 -1 -1 -1 -1 -1 -1 -1 -1
-1 0 -1 0 0 -0 -1 -1 -2 -2 -2 -2 -3 -3 -3 -3 -3 -3 -3 -3 -3 -3 -3 -3 -3 -3 -3 -3 -3 -3 -2 -3 -2 -2 -2 -2 -2 -2 -2 -2 -2 -2 -2 -2
1 1 0 -0 -0 -1 -1 -2 -2 -2 -2 -3 -3 -3 -3 -3 -3 -3 -3 -3 -3 -3 -3 -3 -4 -4 -4 -4 -3 -3 -3 -3 -3 -3 -3 -3 -3 -3 -3 -3 -3 -3 -2 -2
0 -0 -1 -1 -1 -1 -1 -2 -2 -2 -3 -3 -3 -3 -3 -4 -4 -4 -4 -4 -4 -4 -4 -4 -4 -4 -4 -4 -4 -4 -4 -4 -4 -4 -3 -3 -3 -3 -3 -3 -3 -3 -3 -3
-0 -1 -1 -1 -1 -2 -2 -2 -3 -3 -3 -3 -3 -3 -4 -4 -4 -4 -4 -4 -4 -4 -4 -4 -4 -4 -4 -5 -5 -4 -4 -4 -4 -4 -4 -4 -4 -4 -4 -4 -4 -4 -4 -4
-1 -1 -2 -2 -2 -2 -2 -3 -3 -3 -3 -4 -4 -4 -4 -4 -4 -4 -4 -4 -4 -4 -4 -5 -5 -5 -5 -5 -5 -5 -5 -5 -5 -5 -5 -4 -4 -4 -4 -4 -4 -4 -4 -4
-2 -2 -2 -2 -2 -3 -3 -3 -3 -3 -3 -4 -4 -4 -4 -4 -4 -4 -4 -5 -5 -5 -5 -5 -5 -5 -5 -5 -5 -5 -5 -5 -5 -5 -5 -5 -5 -5 -5 -5 -5 -5 -5 -5
-1 -2 -2 -2 -2 -3 -3 -3 -3 -3 -3 -4 -4 -4 -4 -4 -4 -4 -5 -5 -5 -5 -5 -5 -5 -5 -5 -5 -6 -6 -6 -6 -6 -5 -5 -5 -6 -6 -5 -5 -5 -6 -6 -6
-2 -2 -2 -2 -2 -3 -3 -3 -3 -3 -4 -4 -4 -4 -4 -4 -5 -5 -5 -5 -5 -5 -5 -5 -5 -5 -6 -6 -6 -6 -6 -6 -6 -6 -6 -6 -6 -6 -6 -6 -6 -6 -6 -7
-2 -2 -2 -2 -3 -3 -3 -3 -3 -3 -4 -4 -4 -4 -4 -5 -5 -5 -5 -5 -5 -5 -5 -5 -6 -6 -6 -6 -6 -6 -6 -6 -6 -6 -6 -6 -6 -7 -7 -7 -7 -7 -7 -7
-2 -2 -3 -3 -3 -3 -3 -3 -3 -4 -4 -4 -4 -4 -5 -5 -5 -5 -5 -5 -5 -6 -6 -6 -6 -6 -6 -6 -6 -6 -6 -6 -6 -6 -7 -7 -7 -7 -7 -7 -7 -7 -7 -7
-2 -3 -3 -3 -3 -4 -4 -4 -4 -4 -4 -4 -5 -5 -5 -5 -5 -6 -6 -6 -6 -6 -6 -6 -6 -6 -6 -6 -6 -7 -7 -7 -7 -7 -7 -7 -7 -7 -7 -8 -8 -8 -8 -8
-3 -3 -3 -4 -4 -4 -4 -4 -4 -4 -4 -5 -5 -5 -5 -5 -6 -6 -6 -6 -6 -6 -6 -6 -6 -6 -7 -7 -7 -7 -7 -7 -7 -7 -7 -7 -8 -8 -8 -8 -8 -8 -8 -8
-3 -3 -3 -4 -4 -4 -4 -4 -5 -5 -5 -5 -5 -5 -5 -6 -6 -6 -6 -6 -6 -6 -6 -6 -6 -7 -7 -7 -7 -7 -7 -7 -7 -8 -8 -8 -8 -8 -8 -8 -8 -8 -8 -9
-3 -4 -4 -4 -4 -4 -5 -5 -5 -5 -5 -5 -5 -5 -6 -6 -6 -6 -6 -6 -7 -7 -7 -7 -7 -7 -7 -7 -7 -7 -8 -8 -8 -8 -8 -8 -8 -8 -8 -8 -9 -9 -9 -9
-4 -4 -4 -4 -4 -5 -5 -5 -5 -5 -5 -5 -6 -6 -6 -6 -6 -6 -7 -7 -7 -7 -7 -7 -7 -7 -7 -7 -8 -8 -8 -8 -8 -8 -8 -8 -8 -8 -9 -9 -9 -9 -9 -9
-4 -4 -4 -4 -5 -5 -5 -5 -5 -5 -6 -6 -6 -6 -6 -6 -6 -7 -7 -7 -7 -7 -7 -7 -7 -8 -8 -8 -8 -8 -8 -8 -8 -8 -8 -9 -9 -9 -9 -9 -9 -9 -9 -9
Wind_Speed
6 7 5 6 7 6 7 7 7 8 9 9 6 6 5 5 6 6 7 7 8 8 6 7 8 7 6 4 3 3 1 0 0 0 1 1 2 2 3 4 4 4 4 4
5 6 7 9 9 8 8 9 10 11 11 5 4 4 5 5 6 6 7 8 8 8 8 7 7 8 7 5 4 3 2 2 1 1 1 2 2 3 3 3 3 4 4 4
3 2 5 8 7 8 6 6 6 9 7 4 5 5 5 6 6 6 7 8 8 8 8 8 7 7 7 5 4 2 2 2 1 1 2 2 2 2 3 3 3 3 3 3
3 3 6 5 1 3 4 6 6 6 5 5 5 6 4 3 3 5 7 7 7 7 8 7 7 7 6 6 4 3 2 2 2 2 2 2 3 2 2 2 3 3 3 4
2 4 7 3 2 2 3 6 5 6 5 4 6 5 3 3 4 5 6 6 5 6 7 7 7 7 5 5 5 4 3 2 2 1 2 3 3 2 2 3 3 3 3 4
3 3 5 2 2 2 0 5 1 1 3 4 4 5 4 4 5 6 6 5 5 5 6 7 7 7 6 5 4 4 3 2 2 1 2 3 2 2 2 3 3 4 4 4
6 6 6 1 2 3 2 5 2 2 3 3 3 4 5 5 5 5 5 5 5 5 5 6 6 6 6 5 5 5 4 3 2 2 2 3 3 3 3 4 4 4 4 3
5 5 7 3 4 4 4 2 3 3 3 4 5 5 5 5 5 5 5 4 4 4 5 5 5 5 5 6 6 5 4 3 3 3 3 3 3 3 3 4 4 4 4 3
6 6 2 5 3 2 1 2 3 3 4 4 5 6 6 5 4 4 4 4 4 4 4 5 5 5 5 5 5 5 4 4 4 4 4 3 3 3 3 3 3 2 3 2
5 7 4 4 3 2 3 3 3 3 4 4 5 5 5 5 4 4 4 4 3 4 4 4 5 4 4 5 4 4 4 4 3 4 4 3 3 3 3 2 2 2 2 2
7 7 5 4 4 3 3 3 4 3 3 4 4 5 4 4 4 4 3 3 3 3 3 4 4 4 5 4 4 4 3 3 3 3 3 3 3 3 3 2 1 2 1 2
7 5 4 4 3 3 3 4 4 4 4 4 4 5 4 4 3 3 3 2 3 3 3 4 4 4 4 4 3 3 3 3 2 2 2 2 2 3 4 3 3 3 3 2
6 3 3 4 3 2 4 5 4 4 4 4 4 4 3 3 3 2 2 2 2 2 3 3 3 3 4 4 3 3 2 2 2 2 2 1 1 1 2 3 3 3 3 3
4 2 4 4 4 4 4 4 3 3 4 4 3 3 3 3 2 2 2 2 2 2 2 2 2 3 3 3 2 2 2 2 2 1 1 1 1 1 1 1 1 1 2 2
6 5 5 4 3 4 3 2 3 4 3 3 2 2 2 3 3 3 3 2 1 2 2 2 2 3 3 2 2 1 1 1 1 1 1 1 1 1 1 1 1 1 1 2
5 5 5 5 6 5 4 4 4 4 3 3 3 3 3 3 3 3 2 1 1 2 2 2 2 3 2 2 1 1 1 1 1 1 1 1 1 1 1 1 1 1 1 1
5 6 6 7 7 6 5 5 5 4 3 3 3 3 2 2 2 2 2 2 2 2 2 2 2 2 1 1 1 1 1 1 2 1 1 0 0 0 1 1 1 1 1 1
8 7 7 6 6 6 6 5 4 4 4 4 3 2 2 3 3 3 3 2 1 2 2 2 1 1 1 1 1 1 1 1 1 0 0 1 1 1 1 1 1 1 0 1
6 6 6 6 6 5 5 5 4 4 3 3 3 3 3 3 3 2 1 1 1 2 3 2 2 1 1 1 1 0 0 0 1 1 1 1 1 1 1 1 1 1 1 1
5 5 4 4 3 3 4 4 3 3 3 3 3 3 2 2 2 1 1 2 2 2 2 1 0 0 0 0 0 0 0 0 0 1 1 0 0 1 1 1 1 1 0 0
5 4 4 4 3 3 4 4 4 4 3 3 3 3 3 2 2 1 1 2 2 1 1 0 0 0 0 0 0 0 0 0 0 0 0 0 1 1 1 1 0 0 0 0
4 4 4 4 4 3 3 3 3 3 3 3 3 2 2 2 1 1 2 2 1 1 0 1 1 1 0 1 1 1 1 0 0 1 1 0 0 0 1 0 0 0 0 0
3 4 4 4 4 3 2 3 3 4 4 4 3 3 3 2 2 2 2 1 1 1 0 0 0 0 1 1 1 1 1 1 1 1 0 0 0 1 1 1 1 1 1 1
3 3 3 3 3 3 3 3 3 3 3 3 3 3 2 2 1 1 1 1 0 0 0 1 1 1 1 1 1 1 1 1 1 0 0 0 1 1 0 0 0 0 1 1
3 2 3 3 4 3 3 3 2 2 2 2 2 2 2 2 2 1 1 1 1 1 0 1 1 1 1 1 1 1 1 1 1 1 1 0 0 0 0 0 1 1 1 1
3 3 3 3 3 3 3 3 3 2 3 2 2 1 1 1 1 1 1 1 1 1 1 0 0 1 1 1 1 1 1 0 0 0 0 0 0 0 1 1 1 1 2 2
2 2 2 2 2 2 3 3 3 3 3 3 2 2 2 2 2 1 1 1 1 1 1 1 1 1 1 1 1 1 1 0 0 0 0 0 1 1 1 2 2 2 2 2
Wind_Direction
274 283 277 266 264 256 242 244 249 266 272 283 301 311 320 332 333 338 342 347 351 347 347 348 345 342 339 341 359 360 349 325 247 347 131 135 142 143 147 147 149 152 152 156
275 263 263 266 258 252 253 254 257 271 279 290 307 322 327 333 336 335 337 343 345 346 346 347 343 338 338 339 350 5 8 4 5 46 104 125 137 140 142 143 142 140 145 153
276 286 301 269 240 223 234 242 247 256 268 312 319 314 316 322 327 334 335 337 341 342 340 338 336 335 333 333 341 358 8 4 5 49 91 97 108 129 138 143 141 142 147 144
284 313 254 242 129 181 235 258 253 266 289 302 298 299 303 314 335 334 332 331 334 336 334 335 337 333 335 346 355 360 4 19 15 35 83 85 89 108 120 132 143 138 131 129
249 266 273 242 205 167 222 271 244 253 279 305 326 316 301 349 349 327 321 324 331 332 329 334 338 335 343 353 2 8 3 11 13 47 75 81 84 98 107 115 121 126 128 129
233 249 258 253 119 113 86 273 280 251 278 301 329 304 294 328 328 326 329 333 335 336 337 339 338 341 349 352 1 360 355 1 8 60 82 83 82 85 96 112 114 107 103 111
234 245 263 191 136 119 198 265 331 303 282 284 278 274 303 322 323 321 325 330 336 339 336 334 338 348 350 356 358 353 1 20 36 57 76 86 78 74 90 98 97 94 91 89
207 228 252 152 144 191 240 319 326 314 302 293 295 303 313 319 320 323 327 329 335 335 334 339 348 352 353 356 353 357 13 37 44 50 61 77 87 80 86 96 95 97 97 88
208 221 215 163 195 228 335 297 300 304 298 290 292 294 303 306 310 316 320 324 333 334 334 346 353 357 354 351 359 6 21 39 49 53 57 63 80 85 81 84 93 96 100 101
263 261 248 227 239 270 284 279 287 288 288 283 281 287 292 298 303 310 319 323 333 338 339 344 350 358 356 352 1 12 24 30 40 52 53 50 58 71 83 87 96 104 114 114
257 272 283 248 235 248 266 276 281 280 274 270 273 279 281 286 292 301 312 319 329 328 330 337 348 357 356 359 7 16 24 31 35 45 55 50 49 57 69 70 122 134 126 127
239 237 233 259 238 238 251 259 261 267 273 270 264 268 273 279 284 295 308 320 326 331 339 340 349 353 355 359 10 21 23 23 28 35 49 57 60 52 50 64 61 59 61 75
237 247 247 260 260 238 243 256 258 257 260 267 266 262 270 280 292 300 309 313 310 315 321 330 347 350 350 359 14 24 21 16 22 33 43 48 63 84 64 47 51 54 57 51
230 225 254 246 250 251 254 256 251 255 257 259 264 271 273 278 288 290 289 289 297 309 315 326 342 338 342 358 11 16 18 17 21 39 34 35 38 56 107 111 70 36 40 45
222 219 234 253 252 251 250 246 251 259 265 268 266 262 263 268 272 274 277 284 302 309 310 322 332 327 341 5 11 13 11 6 27 45 39 42 45 40 69 85 90 58 41 43
219 223 229 242 251 249 240 237 244 255 259 262 262 258 254 254 265 275 275 249 253 277 292 302 305 312 340 2 355 357 11 13 19 34 27 30 62 69 84 94 87 74 51 35
201 224 230 241 246 246 236 232 236 241 245 249 249 249 252 259 275 287 288 271 258 271 284 283 288 314 343 345 342 356 11 4 358 9 0 11 50 65 91 104 104 84 37 3
213 224 225 229 234 238 238 235 234 234 237 241 237 227 226 234 250 265 276 290 311 319 308 286 289 329 344 340 343 359 10 5 3 29 33 46 56 65 90 113 129 119 81 37
223 230 231 231 230 227 228 230 228 225 225 218 218 224 229 234 243 261 278 274 275 286 294 288 309 343 343 351 20 37 45 46 29 39 48 34 27 69 108 122 130 122 102 60
230 232 232 231 221 215 221 223 214 215 212 200 209 224 234 244 244 247 244 240 247 259 276 280 254 260 276 258 45 58 65 74 64 55 47 43 87 99 112 121 120 110 98 61
231 230 227 221 220 217 213 207 202 212 210 195 201 216 228 245 243 229 232 265 283 280 267 223 173 244 213 182 168 90 165 177 148 111 98 89 87 99 109 108 104 77 47 358
228 227 224 217 214 223 217 200 196 200 199 197 198 199 207 233 244 254 246 249 276 333 7 231 218 213 184 139 149 165 168 140 106 93 97 101 109 121 119 124 154 233 265 265
226 222 216 214 213 213 200 194 194 194 197 198 196 198 206 218 215 217 260 282 281 280 335 212 216 173 140 119 113 117 107 95 79 67 66 80 122 137 148 181 208 223 238 260
222 217 214 199 176 178 201 214 198 192 192 196 197 198 196 204 231 226 231 212 202 224 213 226 194 158 132 98 108 112 116 114 105 92 76 68 89 109 123 170 253 266 264 275
213 209 194 180 185 198 199 183 167 170 173 188 196 194 191 192 205 215 176 178 203 156 166 245 189 134 114 102 123 134 144 150 149 136 124 110 118 128 177 265 268 268 273 274
198 201 203 203 197 185 172 167 176 183 178 179 184 181 174 163 156 146 150 157 166 139 103 105 145 158 141 134 133 137 130 137 85 102 134 174 195 243 268 279 279 277 279 279
183 184 183 191 194 179 172 175 179 185 184 178 180 174 159 148 141 139 137 129 129 123 109 102 118 141 145 140 132 125 124 136 147 168 196 227 257 262 265 268 277 278 280 280
Height
1503 1500 1499 1500 1499 1498 1499 1497 1497 1489 1486 1481 1481 1480 1478 1477 1475 1472 1470 1467 1464 1462 1460 1457 1455 1453 1452 1450 1450 1450 1451 1451 1451 1452 1453 1454 1456 1457 1459 1462 1464 1466 1468 1470
1504 1499 1497 1497 1494 1494 1494 1493 1490 1488 1484 1480 1480 1479 1478 1476 1474 1472 1469 1467 1464 1462 1459 1456 1454 1452 1450 1449 1448 1448 1448 1448 1448 1449 1450 1451 1452 1453 1456 1458 1460 1462 1464 1466
1503 1497 1496 1495 1488 1489 1489 1487 1488 1487 1483 1480 1479 1478 1477 1475 1473 1472 1469 1466 1463 1461 1459 1456 1454 1451 1449 1448 1447 1446 1446 1446 1446 1447 1447 1447 1448 1450 1452 1454 1457 1459 1461 1463
1504 1502 1503 1488 1483 1484 1486 1484 1484 1482 1480 1480 1478 1477 1476 1474 1473 1471 1469 1466 1463 1460 1458 1455 1453 1451 1449 1447 1446 1445 1444 1444 1445 1444 1444 1445 1446 1447 1449 1452 1454 1456 1458 1460
1505 1502 1491 1485 1484 1484 1486 1484 1480 1480 1479 1478 1477 1475 1473 1473 1471 1470 1468 1465 1463 1460 1457 1454 1452 1450 1448 1446 1445 1444 1443 1443 1443 1443 1443 1443 1444 1445 1447 1449 1451 1453 1455 1457
1505 1503 1495 1484 1483 1482 1485 1484 1477 1477 1477 1477 1477 1476 1472 1471 1470 1468 1466 1464 1461 1458 1456 1453 1451 1449 1447 1445 1444 1443 1443 1442 1442 1442 1442 1442 1443 1444 1445 1447 1449 1451 1453 1455
1504 1500 1488 1483 1482 1483 1489 1482 1477 1475 1476 1476 1475 1475 1472 1469 1467 1466 1464 1462 1459 1457 1455 1453 1450 1448 1446 1445 1443 1443 1442 1442 1442 1441 1441 1442 1442 1443 1444 1446 1447 1449 1451 1453
1500 1499 1490 1481 1481 1483 1481 1477 1475 1475 1474 1473 1472 1471 1469 1467 1465 1463 1461 1459 1457 1455 1453 1452 1449 1447 1446 1444 1443 1442 1441 1441 1441 1441 1441 1442 1442 1443 1444 1445 1446 1448 1450 1452
1489 1485 1478 1477 1476 1477 1476 1475 1474 1473 1472 1472 1470 1468 1467 1465 1463 1461 1459 1457 1455 1453 1451 1449 1448 1447 1445 1444 1443 1441 1440 1440 1440 1440 1441 1441 1442 1443 1444 1445 1446 1448 1449 1451
1483 1475 1474 1474 1473 1473 1473 1473 1472 1471 1470 1469 1467 1466 1464 1463 1461 1459 1457 1455 1454 1452 1450 1449 1447 1446 1445 1444 1442 1441 1440 1440 1440 1440 1440 1441 1442 1443 1444 1445 1446 1448 1449 1450
1479 1473 1471 1469 1470 1470 1470 1469 1469 1468 1467 1466 1465 1463 1462 1460 1459 1457 1455 1454 1452 1450 1449 1448 1446 1445 1444 1443 1442 1441 1440 1439 1439 1440 1440 1441 1442 1443 1444 1445 1447 1448 1448 1449
1473 1469 1469 1467 1466 1467 1466 1466 1465 1464 1463 1463 1462 1460 1459 1458 1456 1455 1453 1452 1450 1449 1447 1446 1445 1443 1442 1441 1441 1440 1439 1439 1439 1439 1440 1440 1442 1443 1444 1445 1446 1447 1447 1448
1465 1465 1465 1464 1463 1463 1463 1462 1462 1461 1460 1459 1458 1457 1456 1455 1454 1453 1451 1450 1448 1447 1446 1444 1443 1442 1441 1441 1440 1439 1438 1439 1439 1439 1440 1440 1441 1441 1442 1444 1445 1445 1445 1446
1461 1461 1461 1460 1460 1459 1459 1458 1458 1457 1457 1456 1455 1454 1453 1452 1451 1450 1449 1448 1447 1445 1444 1443 1441 1441 1440 1440 1439 1438 1438 1438 1438 1439 1439 1440 1440 1441 1441 1442 1442 1443 1444 1444
1456 1457 1457 1456 1456 1456 1455 1455 1454 1453 1453 1453 1452 1451 1450 1449 1448 1447 1446 1445 1444 1443 1442 1441 1439 1439 1439 1438 1438 1437 1437 1437 1437 1438 1438 1438 1439 1439 1440 1440 1441 1441 1441 1442
1451 1452 1452 1452 1452 1451 1451 1451 1450 1450 1450 1449 1449 1448 1447 1447 1446 1445 1444 1442 1441 1440 1439 1438 1437 1437 1437 1436 1436 1436 1436 1436 1436 1436 1437 1437 1437 1438 1438 1439 1439 1439 1440 1440
1447 1446 1447 1447 1447 1447 1447 1447 1446 1446 1446 1446 1446 1445 1445 1444 1443 1442 1441 1440 1439 1438 1437 1437 1436 1436 1435 1435 1435 1434 1434 1435 1435 1435 1435 1436 1436 1436 1437 1437 1438 1438 1438 1439
1441 1442 1442 1442 1442 1442 1442 1443 1443 1443 1443 1443 1442 1442 1441 1440 1440 1439 1438 1438 1437 1436 1436 1435 1435 1434 1434 1434 1433 1433 1433 1434 1434 1434 1434 1434 1435 1435 1435 1436 1436 1436 1437 1437
1436 1437 1437 1438 1438 1438 1438 1439 1439 1439 1439 1439 1439 1439 1438 1438 1437 1437 1436 1435 1434 1433 1433 1433 1433 1433 1432 1432 1432 1432 1432 1432 1432 1433 1433 1433 1433 1434 1434 1434 1435 1435 1435 1435
1432 1433 1433 1433 1434 1434 1435 1435 1435 1435 1436 1436 1436 1436 1435 1435 1435 1434 1434 1433 1432 1432 1432 1431 1431 1430 1431 1431 1431 1431 1431 1431 1431 1431 1432 1432 1432 1432 1433 1433 1433 1433 1433 1433
1428 1428 1429 1429 1430 1430 1431 1432 1432 1432 1432 1433 1433 1432 1432 1432 1432 1432 1431 1431 1431 1431 1430 1430 1429 1429 1429 1429 1430 1429 1430 1430 1430 1430 1430 1431 1431 1431 1431 1431 1432 1432 1432 1432
1424 1425 1425 1425 1426 1427 1427 1428 1429 1429 1429 1430 1430 1430 1430 1430 1430 1430 1429 1429 1429 1429 1429 1428 1428 1428 1428 1428 1428 1428 1429 1429 1429 1429 1429 1430 1430 1430 1430 1430 1430 1430 1430 1430
1421 1421 1422 1422 1423 1423 1424 1425 1425 1426 1426 1427 1427 1427 1427 1427 1427 1427 1427 1428 1427 1427 1427 1427 1427 1427 1427 1427 1427 1428 1428 1428 1428 1428 1428 1428 1429 1429 1429 1429 1429 1429 1429 1428
1418 1419 1419 1419 1420 1420 1421 1422 1422 1423 1424 1424 1425 1425 1425 1425 1425 1426 1426 1426 1426 1426 1426 1426 1426 1426 1426 1426 1426 1427 1427 1427 1427 1427 1427 1427 1427 1427 1427 1427 1427 1427 1427 1427
1416 1416 1416 1416 1417 1417 1418 1419 1420 1421 1421 1422 1422 1423 1423 1424 1424 1424 1424 1424 1424 1424 1424 1424 1424 1424 1425 1425 1425 1425 1426 1426 1426 1426 1426 1426 1426 1426 1426 1426 1426 1426 1425 1425
1413 1414 1414 1414 1415 1416 1416 1417 1418 1418 1419 1419 1420 1421 1421 1422 1422 1422 1422 1422 1422 1422 1423 1423 1423 1423 1423 1424 1424 1424 1424 1425 1425 1425 1425 1425 1425 1425 1425 1424 1424 1424 1424 1423
1411 1411 1412 1412 1413 1414 1414 1415 1416 1416 1417 1418 1418 1419 1419 1420 1420 1421 1421 1421 1421 1421 1421 1421 1421 1422 1422 1423 1423 1423 1423 1424 1424 1424 1424 1424 1424 1423 1423 1423 1423 1422 1422 1421